ヒル彗星

326P/Hill (2007)

English version
Home page
Updated on November 3, 2015

---------------------------------------------------------------------

・ プロフィール

符号 326P/2007 V2
発見日 2007年11月9日
発見光度 19等
発見者 R. E. Hill (Mt. Lemmon Survey)

・ 写真集

・ 軌道要素

Epoch 2007 Aug. 8.0 TT = JDT 2454320.5
T 2007 July 30.85277 TT                                 MPCW
q   2.7749327            (2000.0)            P               Q
n   0.12016524     Peri.  278.51860     +0.94808357     -0.31517188
a   4.0670872      Node    99.86078     +0.30610481     +0.86816216
e   0.3177101      Incl.    2.47097     +0.08624032     +0.38335512
P   8.20
From 142 observations 1990 Sept. 24-2015 Oct. 23, mean residual 0".6.

・ 光度変化

        m1 = 13.5 + 5 logΔ + 10.0 log r

---------------------------------------------------------------------

軌道要素はM.P.E.C. 2015-U54に掲載されたものです。
光度グラフはComet for Windowsで作成したものです。

---------------------------------------------------------------------

Copyright(C) Seiichi Yoshida (comet@aerith.net). All rights reserved.